User: anonymous   Login
Location: Unspecified
(0.0000°N, 0.0000°E)
Time: 14:50:38
(UTC+00:00)
Language:

OBJECT G - Orbit

View from above orbital plane
View from above orbital plane
View from above satellite
View from above satellite

Ground track
Ground track

The orbit data is extracted from the following two-line orbital elements,

1 41936U 98067KY  17206.19179617 +.00131013 +00000-0 +69540-3 0  9996
2 41936 051.6295 193.3350 0007354 052.6336 307.5334 15.79567123029092
Epoch (UTC): 25 July 2017 04:36:11
Eccentricity: 0.0007354
inclination: 51.6295°
perigee height: 327 km
apogee height: 336 km
right ascension of ascending node: 193.3350°
argument of perigee: 52.6336°
revolutions per day: 15.79567123
mean anomaly at epoch: 307.5334°
orbit number at epoch: 2909

The dashed part of the orbit path shows where the satellite is in the earth's shadow,  

DLR